Weather reports worldwide

Advertisment
Vigna Di Valle, Italy (16224): temperature & dewpoint: 08.11.2018 13:00:00 - 14.11.2018 13:00:00 (CET)Vigna Di Valle, Italy (16224): wind speed: 08.11.2018 13:00:00 - 14.11.2018 13:00:00 (CET)Vigna Di Valle, Italy (16224): wind direction: 08.11.2018 13:00:00 - 14.11.2018 13:00:00 (CET)Vigna Di Valle, Italy (16224): reduced air pressure: 08.11.2018 13:00:00 - 14.11.2018 13:00:00 (CET)Vigna Di Valle, Italy (16224): visibility: 08.11.2018 13:00:00 - 14.11.2018 13:00:00 (CET)Vigna Di Valle, Italy (16224): sunshine duration: 08.11.2018 13:00:00 - 14.11.2018 13:00:00 (CET)
Date & Time tt [°C] td [°C] ff [km/h] ff [kn] dd ppp [hPa] vv [km] sd [min]
14.11.2018 13:00:00 15,0 10,5 5 3 NE 1026,1 12 60
14.11.2018 12:00:00 14,0 11,1 9 5 NE 1027,0 10 60
14.11.2018 11:00:00 11,8 10,5 11 6 NE 1027,9 4,0 54
14.11.2018 10:00:00 10,7 10,1 9 5 NNE 1028,1 2,0 42
14.11.2018 09:00:00 10,5 10,3 4 2 N 1027,9 2,0 0
14.11.2018 08:00:00 9,6 9,5 9 5 NE 1027,8 0,8 0
14.11.2018 07:00:00 9,3 9,1 11 6 NE 1027,5 0,2 0
14.11.2018 06:00:00 10,1 9,8 5 3 NNE 1027,3 - 0
14.11.2018 05:00:00 10,3 9,9 8 4 NNE 1027,2 - 0
14.11.2018 04:00:00 10,9 10,5 5 3 N 1027,5 - 0
14.11.2018 03:00:00 11,4 10,9 5 3 N 1027,6 - 0
14.11.2018 02:00:00 11,8 10,9 4 2 WNW 1028,0 - 0
14.11.2018 01:00:00 12,3 10,8 8 4 NNW 1028,2 - 0
14.11.2018 00:00:00 12,4 10,8 5 3 NNW 1028,5 - 0
13.11.2018 23:00:00 12,2 10,8 5 3 NNW 1028,7 - 0
13.11.2018 22:00:00 12,1 11,5 2 1 - 1029,0 - 0
13.11.2018 21:00:00 12,7 11,9 4 2 NNE 1028,6 - 0
13.11.2018 20:00:00 13,5 12,2 2 1 NNW 1028,6 - 0
13.11.2018 19:00:00 13,6 11,6 4 2 NNW 1028,6 7 0
13.11.2018 18:00:00 14,4 12,5 4 2 N 1028,4 7 0
13.11.2018 17:00:00 15,1 12,0 4 2 NNW 1028,2 8 18
13.11.2018 16:00:00 17,2 12,0 4 2 N 1027,8 9 44
13.11.2018 15:00:00 16,4 12,8 4 2 N 1027,9 9 18
13.11.2018 14:00:00 16,5 13,0 4 2 N 1028,2 9 16
13.11.2018 13:00:00 17,0 12,9 5 3 NNE 1028,5 9 48
13.11.2018 12:00:00 16,7 12,7 4 2 N 1029,1 8 60
13.11.2018 11:00:00 14,4 11,7 5 3 NNE 1029,6 7 60
13.11.2018 10:00:00 13,7 12,1 5 3 NNE 1029,4 6 60
13.11.2018 09:00:00 12,4 11,6 5 3 NE 1029,2 4,0 38
13.11.2018 08:00:00 11,7 11,4 8 4 NNE 1029,1 4,0 1
13.11.2018 07:00:00 11,0 10,8 8 4 NNE 1028,7 3,0 0
13.11.2018 06:00:00 11,1 11,0 8 4 NNE 1028,3 - 0
13.11.2018 05:00:00 11,4 11,3 4 2 N 1028,2 - 0
13.11.2018 04:00:00 11,9 11,8 5 3 N 1028,2 - 0
13.11.2018 03:00:00 12,0 11,8 5 3 NNE 1028,5 - 0
13.11.2018 02:00:00 12,1 11,7 5 3 NE 1028,6 - 0
13.11.2018 01:00:00 11,9 11,3 5 3 NE 1028,3 - 0
13.11.2018 00:00:00 12,1 11,7 4 2 N 1028,1 - 0
12.11.2018 23:00:00 12,8 12,3 4 2 NNE 1028,1 - 0
12.11.2018 22:00:00 13,2 12,3 4 2 ENE 1027,9 - 0
12.11.2018 21:00:00 13,4 12,4 4 2 N 1027,9 - 0
12.11.2018 20:00:00 13,7 12,7 2 1 NNW 1027,5 - 0
12.11.2018 19:00:00 13,8 12,1 5 3 WSW 1027,2 8 0
12.11.2018 18:00:00 14,3 12,6 8 4 SW 1026,9 8 0
12.11.2018 17:00:00 15,5 12,8 8 4 SSW 1026,3 16 2
12.11.2018 16:00:00 17,7 12,8 4 2 N 1026,3 16 55
12.11.2018 15:00:00 18,5 11,5 4 2 N 1026,1 16 60
12.11.2018 14:00:00 18,7 11,6 5 3 N 1026,1 16 60
12.11.2018 13:00:00 17,8 11,0 5 3 N 1026,5 12 60
12.11.2018 12:00:00 17,1 10,2 5 3 NNE 1027,0 10 60
12.11.2018 11:00:00 16,0 10,5 5 3 NNE 1027,3 10 60
12.11.2018 10:00:00 14,1 10,1 8 4 NNE 1027,1 10 60
12.11.2018 09:00:00 13,1 10,3 11 6 NE 1027,0 10 60
12.11.2018 08:00:00 12,2 10,0 9 5 NNE 1026,7 10 25
12.11.2018 07:00:00 11,2 10,1 11 6 NE 1026,3 10 0
12.11.2018 06:00:00 11,2 9,9 9 5 NE 1026,0 - 0
12.11.2018 05:00:00 11,4 10,4 11 6 NE 1025,6 - 0
12.11.2018 04:00:00 11,6 10,6 8 4 NE 1025,4 - 0
12.11.2018 03:00:00 11,9 11,2 8 4 NE 1025,4 - 0
12.11.2018 02:00:00 12,1 11,7 4 2 NNE 1025,2 - 0
12.11.2018 01:00:00 12,4 11,9 5 3 NNE 1025,1 - 0
12.11.2018 00:00:00 12,8 12,0 4 2 N 1024,9 - 0
11.11.2018 23:00:00 13,1 11,9 4 2 NE 1024,5 - 0
11.11.2018 22:00:00 12,9 11,2 4 2 N 1024,3 - 0
11.11.2018 21:00:00 13,8 11,2 5 3 N 1023,8 - 0
11.11.2018 20:00:00 14,2 10,7 2 1 SW 1023,6 - 0
11.11.2018 19:00:00 14,4 8,8 2 1 SW 1023,2 - 0
11.11.2018 18:00:00 14,6 8,8 0 0 N 1023,0 - 0
11.11.2018 17:00:00 15,9 9,0 4 2 N 1022,2 - 39
11.11.2018 16:00:00 17,8 11,3 4 2 NNE 1021,8 - 60
11.11.2018 15:00:00 19,8 11,3 4 2 ENE 1021,4 - 60
11.11.2018 14:00:00 18,3 10,3 4 2 N 1021,6 - 60
11.11.2018 13:00:00 18,1 11,0 5 3 N 1021,5 - 60
11.11.2018 12:00:00 16,9 10,9 4 2 N 1021,4 - 60
11.11.2018 11:00:00 15,0 10,5 5 3 N 1021,8 - 60
11.11.2018 10:00:00 13,6 10,2 9 5 NE 1021,6 - 60
11.11.2018 09:00:00 12,5 10,4 9 5 NE 1021,2 - 56
11.11.2018 08:00:00 11,6 10,1 9 5 NE 1020,8 - 27
11.11.2018 07:00:00 10,4 9,6 9 5 NE 1020,0 - 0
11.11.2018 06:00:00 10,5 9,7 9 5 NE 1019,3 - 0
11.11.2018 05:00:00 10,9 10,1 9 5 NE 1019,0 - 0
11.11.2018 04:00:00 11,0 10,1 9 5 NE 1018,8 - 0
11.11.2018 03:00:00 11,1 10,5 8 4 NNE 1018,7 - 0
11.11.2018 02:00:00 11,7 11,1 5 3 NNE 1018,6 - 0
11.11.2018 01:00:00 11,4 10,5 5 3 N 1018,6 - 0
11.11.2018 00:00:00 11,8 10,6 5 3 N 1018,4 - 0
10.11.2018 23:00:00 12,0 11,0 5 3 NNE 1018,1 - 0
10.11.2018 22:00:00 12,2 10,9 4 2 N 1018,0 - 0
10.11.2018 21:00:00 12,4 10,8 4 2 NNE 1017,6 - 0
10.11.2018 20:00:00 12,8 11,0 4 2 NNE 1017,3 - 0
10.11.2018 19:00:00 13,1 10,5 5 3 WSW 1017,0 10 0
10.11.2018 18:00:00 13,9 10,6 8 4 SSW 1016,5 12 0
10.11.2018 17:00:00 15,2 10,3 0 0 N 1015,8 14 42
10.11.2018 16:00:00 17,2 11,2 4 2 N 1015,4 16 60
10.11.2018 15:00:00 18,1 10,8 4 2 N 1015,2 16 60
10.11.2018 14:00:00 16,9 11,5 5 3 N 1015,6 16 60
10.11.2018 13:00:00 16,4 11,5 5 3 N 1016,0 14 60
10.11.2018 12:00:00 16,1 11,6 5 3 N 1016,5 12 60
10.11.2018 11:00:00 14,4 11,6 8 4 NNE 1017,3 12 60
10.11.2018 10:00:00 13,8 11,3 8 4 NE 1017,3 10 60
10.11.2018 09:00:00 12,3 11,0 11 6 NE 1017,7 10 37
10.11.2018 08:00:00 11,2 10,5 9 5 NNE 1017,5 10 19
10.11.2018 07:00:00 11,2 10,5 9 5 NE 1017,0 8 0
10.11.2018 06:00:00 11,3 10,9 9 5 N 1017,0 - 0
10.11.2018 05:00:00 11,5 11,1 9 5 NE 1016,9 - 0
10.11.2018 04:00:00 12,1 11,9 8 4 NNE 1017,3 - 0
10.11.2018 03:00:00 12,3 12,2 5 3 NNE 1017,9 - 0
10.11.2018 02:00:00 12,8 12,7 8 4 NNE 1018,0 - 0
10.11.2018 01:00:00 13,0 12,9 4 2 N 1018,1 - 0
10.11.2018 00:00:00 13,2 13,0 4 2 N 1018,2 - 0
09.11.2018 23:00:00 13,0 12,7 2 1 - 1018,4 - 0
09.11.2018 22:00:00 13,1 12,7 4 2 N 1018,6 - 0
09.11.2018 21:00:00 13,3 12,7 8 4 ESE 1018,5 - 0
09.11.2018 20:00:00 13,1 12,4 8 4 ESE 1018,3 - 0
09.11.2018 19:00:00 13,5 12,6 8 4 SSE 1018,7 10 0
09.11.2018 18:00:00 14,3 13,2 9 5 S 1018,5 8 0
09.11.2018 17:00:00 15,4 13,8 8 4 SSW 1018,2 6 0
09.11.2018 16:00:00 15,6 13,0 15 8 S 1018,1 12 17
09.11.2018 15:00:00 16,7 12,8 4 2 N 1017,9 12 1
09.11.2018 14:00:00 16,2 12,0 4 2 N 1018,1 14 33
09.11.2018 13:00:00 16,3 11,9 5 3 N 1018,6 12 36
09.11.2018 12:00:00 15,1 11,3 5 3 NNE 1019,4 16 20
09.11.2018 11:00:00 14,6 10,2 5 3 N 1020,2 16 60
09.11.2018 10:00:00 13,8 10,4 8 4 NNE 1020,5 16 60
09.11.2018 09:00:00 12,7 10,9 11 6 NE 1020,8 10 60
09.11.2018 08:00:00 11,5 10,3 9 5 NNE 1020,8 10 28
09.11.2018 07:00:00 10,3 9,6 11 6 NE 1020,3 10 0
09.11.2018 06:00:00 10,5 9,7 13 7 NE 1020,5 - 0
09.11.2018 05:00:00 10,7 10,0 11 6 NE 1020,7 - 0
09.11.2018 04:00:00 11,3 10,9 9 5 NE 1020,8 - 0
09.11.2018 03:00:00 11,3 11,1 5 3 NNE 1020,6 - 0
09.11.2018 02:00:00 11,6 11,3 8 4 NNE 1020,8 - 0
09.11.2018 01:00:00 11,7 11,3 5 3 NNW 1021,2 - 0
09.11.2018 00:00:00 12,0 11,5 4 2 NE 1021,5 - 0
08.11.2018 23:00:00 12,0 11,3 2 1 WSW 1021,9 - 0
08.11.2018 22:00:00 12,7 11,8 4 2 N 1021,9 - 0
08.11.2018 21:00:00 12,9 11,6 4 2 W 1021,7 - 0
08.11.2018 20:00:00 13,1 11,4 5 3 WSW 1021,7 - 0
08.11.2018 19:00:00 13,4 11,6 5 3 SW 1021,8 10 0
08.11.2018 18:00:00 13,6 11,6 5 3 SW 1021,7 10 0
08.11.2018 17:00:00 14,7 12,0 5 3 SSW 1021,4 10 12
08.11.2018 16:00:00 16,5 12,4 9 5 S 1021,4 12 48
08.11.2018 15:00:00 17,6 11,5 4 2 N 1021,5 12 26
08.11.2018 14:00:00 17,4 11,3 4 2 N 1021,7 12 34
08.11.2018 13:00:00 16,0 11,2 4 2 N 1022,2 12 30

tt = temperature
td = dewpoint
ff = wind speed
dd = wind direction
ppp = reduced air pressure
vv = visibility
sd = sunshine duration

Next stations